Regional Weather Roundup
Issued by NWS Sterling, VA

Home | Current Version | Previous Version | Text Only | Print | Product List | Glossary Off
Versions: 1 2 3 4 5 6 7 8 9 10 11 12 13 14 15 16 17 18 19 20 21 22 23 24 25 26 27 28 29 30 31 32 33 34 35 36 37 38 39 40 41 42 43 44 45 46 47 48 49 50

445
ASUS41 KLWX 260411
RWRLWX

REGIONAL WEATHER ROUNDUP
NATIONAL WEATHER SERVICE BALTIMORE MD/WASHINGTON DC
1200 AM EDT FRI AUG 26 2016

Note: "FAIR" indicates few or no clouds below 12,000 feet
with no significant weather and/or obstructions to visibility.
 TC=TEMPERATURE CELSIUS

 * =Non NWS site. Station does not report precipitation (e.g. rain,
    snow, etc.), thunder, or fog.

DCZ001-MDZ009-015-VAZ040>042-051-053>054-260500-
WASHINGTON METRO

CITY           SKY/WX    TMP DP  RH WIND       PRES   REMARKS
WASHINGTON NAT CLEAR     80  75  84 S7        30.02S
DULLES         CLEAR     79  73  82 S6        30.02S
ANDREWS AFB    CLEAR     76  71  85 S7        30.02S
FT BELVOIR     CLEAR     75  74  95 CALM      30.01S FOG
QUANTICO       CLEAR     79  75  87 W3        30.03R
LEESBURG*      CLEAR     77  77 100 SW3       30.03F
MANASSAS*      CLEAR     75  75 100 CALM      30.02S
GAITHERSBURG*  CLEAR     77  70  78 CALM      30.07S

$$

MDZ006>007-011-014-260500-
BALTIMORE METRO

CITY           SKY/WX    TMP DP  RH WIND       PRES   REMARKS
BWI AIRPORT    PTCLDY    77  72  84 SW3       30.01S
MD SCIENCE CTR   N/A     81  72  74 MISG      30.01S
MARTIN STATE   CLEAR     79  79 100 CALM      30.02S
ANNAPOLIS      CLEAR     81  75  82 S5        30.00F
FORT MEADE*    CLEAR    N/A N/A N/A CALM      30.04S

$$

MDZ012-015-019>023-260500-
MARYLAND EASTERN SHORE

CITY           SKY/WX    TMP DP  RH WIND       PRES   REMARKS
OCEAN CITY     CLEAR     79  70  74 SW12      30.05S
SALISBURY      CLEAR     73  69  87 S3        30.04F
BAY BRIDGE AP* CLEAR     81  75  83 S8        30.02S
EASTON*        CLEAR     78  75  91 S7        30.07S

$$

MDZ017>025-260500-
SOUTHERN MARYLAND

CITY           SKY/WX    TMP DP  RH WIND       PRES   REMARKS
PATUXENT RIVER PTCLDY    78  72  81 CALM      30.02F
ST INIGOES     CLEAR     79  74  84 S6        30.03S
LEONARDTOWN*   CLEAR     77  70  78 CALM      30.05S

$$

MDZ003>005-260500-
NORTH CENTRAL MARYLAND

CITY           SKY/WX    TMP DP  RH WIND       PRES   REMARKS
FREDERICK*     CLEAR     73  73 100 CALM      30.05S
HAGERSTOWN APT CLEAR     80  73  79 S6        30.02S

$$

MDZ501>502-260500-
WESTERN MARYLAND

CITY           SKY/WX    TMP DP  RH WIND       PRES   REMARKS
OAKLAND*       MOCLDY    72  70  94 W9G18     30.18S
CUMBERLAND*    CLEAR     77  72  83 CALM      30.07F

$$

VAZ025>031-260500-
SHENANDOAH VALLEY

CITY           SKY/WX    TMP DP  RH WIND       PRES   REMARKS
WINCHESTER*    CLEAR     75  73  94 CALM      30.04S
FRONT ROYAL*   FAIR      77  73  88 CALM      30.04R
LURAY*         FAIR     N/A N/A N/A CALM      30.06S HAZE
NEW MARKET*    FAIR     N/A N/A N/A CALM      30.06R
STAUNTON*      CLEAR     71  69  96 CALM      30.11R
WAYNESBORO*    FAIR      74  72  91 SW3       30.11R

$$

WVZ021-048>050-054>055-260500-
EASTERN WEST VIRGINIA PANHANDLE

CITY           SKY/WX    TMP DP  RH WIND       PRES   REMARKS
MARTINSBURG    CLEAR     77  73  87 S3        30.02S
PETERSBURG*    PTCLDY    74  72  95 CALM      30.06S

$$

VAZ036>039-050-260500-
CENTRAL FOOTHILLS

CITY           SKY/WX    TMP DP  RH WIND       PRES   REMARKS
CHARLOTTESVILL CLEAR     78  76  93 W5        30.05R FOG
CULPEPER*      CLEAR     75  75 100 CALM      30.04R FOG
ORANGE*          N/A     77  77 100 CALM      30.06R
GORDONSVILLE*  FAIR      75  75 100 CALM      30.04R
WARRENTON*     FAIR      74  69  83 CALM      30.03R HAZE

$$

VAZ055>057-260500-
NORTH AND CENTRAL PIEDMONT

CITY           SKY/WX    TMP DP  RH WIND       PRES   REMARKS
FREDERICKSBRG* CLEAR     77  77 100 CALM      30.02R
STAFFORD*      CLEAR     73  72  96 CALM      30.07R

$$

NCZ024-NYZ072-PAZ021-071-VAZ022-071-260500-
OTHER REGIONAL OBSERVATIONS

CITY           SKY/WX    TMP DP  RH WIND       PRES   REMARKS
NEW YORK CITY    N/A     81  72  74 MISG        N/A
PHILADELPHIA   CLEAR     79  70  74 SW10      30.02S
PITTSBURGH     TSTM      79  72  79 N18G25    30.05R
ROANOKE        CLEAR     76  71  85 NW6       30.12S
RICHMOND       PTCLDY    76  69  79 S5        30.04S
RALEIGH        PTCLDY    79  69  71 CALM      30.08S

$$

ANZ530>537-260500-
MARINE OBSERVATIONS

STATION/POSITION TIME  TEMP    WIND        PRES
                       AIR SEA DIR/SP/G
                 (UTC) (F)     (DEG/KT/KT) (MB)
THOMAS PT LIGHT  0400   81 81  180/ 14/ 15 1017.5F
BALT KEY BRIDGE  0342   81     190/  5/  7 1016.1F
COVE POINT       0342   79     200/  7/ 10 1017.2F
LEWISETTA        0348   79 82  210/  9/ 10 1016.3F
SOLOMONS ISLAND  0342   80 84  170/  5/  7   N/A
PINEY POINT      0348          220/  6/  7   N/A

$$





USA.gov is the U.S. government's official web portal to all federal, state and local government web resources and services.